Location: Archemont
(49.1579°N, 1.7598°E)
Time: 10:14:43
(UTC+00:00)

Lacrosse 5 - Pass Details

Date: 03 February 2023
Orbit: 714 x 724 km, 57.0° (Epoch: 09 March)

Event Time Altitude Azimuth Distance (km) Brightness Sun altitude
Rises 18:25:34 0° 228° (SW) 3,126 6.1 -15.4°
Reaches altitude 10° 18:27:57 10° 227° (SW) 2,209 5.2 -15.8°
Maximum altitude 18:33:02 77° 142° (SE) 747 1.8 -16.6°
Enters shadow 18:35:50 27° 60° (ENE) 1,369 2.8 -17.1°
